Home   Weather   Topeka   Past weeks

Flag for USA Past Weather in Topeka, Kansas, USA — Yesterday and Last 2 Weeks

Now
58 °F

Clear.


Feels Like: 58 °F
Forecast: 53 / 69 °F
Wind: 3 mph from Northwest

Location: Philip Billard Municipal Airport

Current Time: Sep 28, 2016 at 5:22:10 AM

Latest Report: Sep 28, 2016 at 4:53 AM


Visibility: 10 mi

Pressure: 29.88 "Hg

Humidity: 84%

Dew Point: 53 °F

Location of TopekaLocation

Past Weather in Topeka — Graph

°F

Topeka Temperature Yesterday

Maximum temperature yesterday: 82 °F (at 4:53 PM)
Minimum temperature yesterday: 49 °F (at 6:53 AM)
Average temperature yesterday: 64 °F

High & Low Weather Summary for the Past Weeks

 TemperatureHumidityPressure
High92 °F (Sep 19, 3:53 PM)100% (Sep 17, 8:53 AM)30.29 "Hg (Sep 17, 8:53 AM)
Low48 °F (Sep 26, 6:53 AM)31% (Sep 26, 2:53 PM)29.85 "Hg (Sep 28, 12:53 AM)
Average72 °F77%30.01 "Hg
* Reported Sep 13 3:53 AM — Sep 28 3:53 AM, Topeka, Weather by CustomWeather, © 2016

Note: Actual official high and low records may vary slightly from our data, if they occured in-between our weather recording intervals... More about our weather records

Advertising

Topeka Weather History for the Previous 24 Hours

Scroll right to see more
 ConditionsComfort  
Time TempWeatherWind HumidityBarometerVisibility
3:53 AM
Wed, Sep 28
58 °FClear.No wind87%29.86 "Hg10 mi
2:53 AM58 °FClear.3 mph87%29.86 "Hg10 mi
1:53 AM57 °FClear.No wind93%29.86 "Hg10 mi
12:53 AM58 °FClear.No wind90%29.85 "Hg9 mi
11:58 PM
Tue, Sep 27
59 °FFog.No wind90%29.88 "Hg2 mi
10:53 PM61 °FClear.No wind83%29.86 "Hg10 mi
9:53 PM62 °FClear.No wind83%29.86 "Hg10 mi
8:53 PM65 °FClear.No wind78%29.87 "Hg10 mi
7:53 PM66 °FClear.No wind75%29.86 "Hg10 mi
6:53 PM75 °FSunny.5 mph48%29.87 "Hg10 mi
5:53 PM80 °FSunny.6 mph35%29.87 "Hg10 mi
4:53 PM82 °FSunny.8 mph32%29.87 "Hg10 mi
3:53 PM81 °FSunny.8 mph33%29.89 "Hg10 mi
2:53 PM81 °FSunny.7 mph37%29.92 "Hg10 mi
1:53 PM79 °FSunny.8 mph39%29.95 "Hg10 mi
12:53 PM75 °FSunny.6 mph43%29.98 "Hg10 mi
11:53 AM72 °FSunny.5 mph46%30.01 "Hg10 mi
10:53 AM68 °FSunny.5 mph53%30.03 "Hg10 mi
9:53 AM63 °FSunny.6 mph63%30.04 "Hg10 mi
8:53 AM59 °FSunny.3 mph75%30.05 "Hg10 mi
7:53 AM52 °FSunny.No wind86%30.05 "Hg10 mi
6:53 AM49 °FClear.No wind90%30.06 "Hg10 mi
5:53 AM50 °FClear.5 mph89%30.06 "Hg10 mi
Weather by CustomWeather, © 2016

See weather overviewHow to use our weather pages